Time,TemperatureF,DewpointF,PressureIn,WindDirection,WindDirectionDegrees,WindSpeedMPH,WindSpeedGustMPH,Humidity,HourlyPrecipIn,Conditions,Clouds,dailyrainin,SoftwareType,DateUTC
2011-05-25 00:04:00,52.0,35.3,29.93,NW,315,0.0,0.0,53,0.00,,,0.00,open2300-1.11,2011-05-25 06:04:00,
2011-05-25 00:14:00,51.1,35.0,29.94,NW,315,0.0,0.0,54,0.00,,,0.00,open2300-1.11,2011-05-25 06:14:00,
2011-05-25 00:24:00,50.9,35.2,29.93,NE,45,0.0,0.0,55,0.00,,,0.00,open2300-1.11,2011-05-25 06:24:00,
2011-05-25 00:34:00,51.1,35.8,29.94,East,90,0.0,0.0,56,0.00,,,0.00,open2300-1.11,2011-05-25 06:34:00,
2011-05-25 00:44:00,51.1,35.8,29.94,ENE,67,0.0,0.0,56,0.00,,,0.00,open2300-1.11,2011-05-25 06:44:00,
2011-05-25 00:54:00,50.9,35.7,29.94,ENE,67,0.0,0.0,56,0.00,,,0.00,open2300-1.11,2011-05-25 06:54:00,
2011-05-25 01:04:00,50.4,35.7,29.95,ENE,67,0.0,0.0,57,0.00,,,0.00,open2300-1.11,2011-05-25 07:04:00,
2011-05-25 01:14:00,49.8,35.6,29.95,East,90,0.0,0.0,58,0.00,,,0.00,open2300-1.11,2011-05-25 07:14:00,
2011-05-25 01:24:00,49.1,35.4,29.95,East,90,0.0,0.0,59,0.00,,,0.00,open2300-1.11,2011-05-25 07:24:00,
2011-05-25 01:34:00,48.7,35.5,29.95,SSE,157,0.0,0.0,60,0.00,,,0.00,open2300-1.11,2011-05-25 07:34:00,
2011-05-25 01:44:00,48.4,35.6,29.95,West,270,0.0,0.0,61,0.00,,,0.00,open2300-1.11,2011-05-25 07:44:00,
2011-05-25 01:54:00,48.4,36.0,29.95,WSW,247,0.0,0.0,62,0.00,,,0.00,open2300-1.11,2011-05-25 07:54:00,
2011-05-25 02:04:00,48.4,36.4,29.95,WSW,247,0.0,0.0,63,0.00,,,0.00,open2300-1.11,2011-05-25 08:04:00,
2011-05-25 02:14:00,48.4,36.4,29.95,East,90,0.0,0.0,63,0.00,,,0.00,open2300-1.11,2011-05-25 08:14:00,
2011-05-25 02:24:00,48.4,36.4,29.95,East,90,0.0,1.1,63,0.00,,,0.00,open2300-1.11,2011-05-25 08:24:00,
2011-05-25 02:34:00,48.4,36.7,29.95,ESE,112,0.0,1.6,64,0.00,,,0.00,open2300-1.11,2011-05-25 08:34:00,
2011-05-25 02:44:00,48.4,36.4,29.95,ENE,67,0.0,0.0,63,0.00,,,0.00,open2300-1.11,2011-05-25 08:44:00,
2011-05-25 02:54:00,48.6,36.5,29.95,SE,135,0.0,0.0,63,0.00,,,0.00,open2300-1.11,2011-05-25 08:54:00,
2011-05-25 03:04:00,48.7,36.7,29.96,ESE,112,0.0,0.0,63,0.00,,,0.00,open2300-1.11,2011-05-25 09:04:00,
2011-05-25 03:14:00,48.6,36.5,29.96,ESE,112,0.0,0.0,63,0.00,,,0.00,open2300-1.11,2011-05-25 09:14:00,
2011-05-25 03:24:00,48.4,36.0,29.95,SSE,157,0.0,0.0,62,0.00,,,0.00,open2300-1.11,2011-05-25 09:24:00,
2011-05-25 03:34:00,48.4,36.0,29.96,SSE,157,0.0,0.9,62,0.00,,,0.00,open2300-1.11,2011-05-25 09:34:00,
2011-05-25 03:44:00,48.2,36.2,29.97,SE,135,0.0,3.8,63,0.00,,,0.00,open2300-1.11,2011-05-25 09:44:00,
2011-05-25 03:54:00,48.0,36.0,29.96,SE,135,0.0,2.0,63,0.00,,,0.00,open2300-1.11,2011-05-25 09:54:00,
2011-05-25 04:04:00,47.8,35.8,29.96,SE,135,0.0,4.0,63,0.00,,,0.00,open2300-1.11,2011-05-25 10:04:00,
2011-05-25 04:14:00,47.5,35.5,29.96,ESE,112,0.0,0.0,63,0.00,,,0.00,open2300-1.11,2011-05-25 10:14:00,
2011-05-25 04:24:00,47.3,35.3,29.96,ENE,67,0.0,0.0,63,0.00,,,0.00,open2300-1.11,2011-05-25 10:24:00,
2011-05-25 04:34:00,46.9,35.0,29.97,ESE,112,0.0,0.0,63,0.00,,,0.00,open2300-1.11,2011-05-25 10:34:00,
2011-05-25 04:44:00,46.8,35.2,29.97,East,90,0.0,0.0,64,0.00,,,0.00,open2300-1.11,2011-05-25 10:44:00,
2011-05-25 04:54:00,46.8,35.2,29.97,East,90,5.8,5.8,64,0.00,,,0.00,open2300-1.11,2011-05-25 10:54:00,
2011-05-25 05:04:00,46.2,35.1,29.97,East,90,6.0,6.0,65,0.00,,,0.00,open2300-1.11,2011-05-25 11:04:00,
2011-05-25 05:14:00,46.2,35.1,29.97,East,90,5.4,6.0,65,0.00,,,0.00,open2300-1.11,2011-05-25 11:14:00,
2011-05-25 05:24:00,46.0,34.9,29.98,East,90,0.0,5.4,65,0.00,,,0.00,open2300-1.11,2011-05-25 11:24:00,
2011-05-25 05:34:00,45.5,34.8,29.98,ENE,67,0.0,0.0,66,0.00,,,0.00,open2300-1.11,2011-05-25 11:34:00,
2011-05-25 05:44:00,45.3,34.6,29.98,ENE,67,0.0,0.0,66,0.00,,,0.00,open2300-1.11,2011-05-25 11:44:00,
2011-05-25 05:54:00,45.3,34.6,29.98,ENE,67,0.0,0.0,66,0.00,,,0.00,open2300-1.11,2011-05-25 11:54:00,
2011-05-25 06:04:00,45.0,34.2,29.99,East,90,0.0,0.0,66,0.00,,,0.00,open2300-1.11,2011-05-25 12:04:00,
2011-05-25 06:14:00,44.6,34.3,29.99,East,90,0.0,0.0,67,0.00,,,0.00,open2300-1.11,2011-05-25 12:14:00,
2011-05-25 06:24:00,44.4,34.1,30.00,East,90,0.0,0.0,67,0.00,,,0.00,open2300-1.11,2011-05-25 12:24:00,
2011-05-25 06:34:00,44.1,33.8,30.00,SE,135,0.0,0.0,67,0.00,,,0.00,open2300-1.11,2011-05-25 12:34:00,
2011-05-25 06:44:00,43.5,33.3,30.00,SSE,157,0.0,0.0,67,0.00,,,0.00,open2300-1.11,2011-05-25 12:44:00,
2011-05-25 06:54:00,43.3,33.5,30.01,SE,135,0.0,0.0,68,0.00,,,0.00,open2300-1.11,2011-05-25 12:54:00,
2011-05-25 07:04:00,43.7,34.2,30.01,ESE,112,0.0,0.0,69,0.00,,,0.00,open2300-1.11,2011-05-25 13:04:00,
2011-05-25 07:14:00,43.9,34.4,30.01,ESE,112,0.0,0.0,69,0.00,,,0.00,open2300-1.11,2011-05-25 13:14:00,
2011-05-25 07:24:00,44.1,34.9,30.00,SE,135,0.0,0.0,70,0.00,,,0.00,open2300-1.11,2011-05-25 13:24:00,
2011-05-25 07:34:00,44.6,35.4,30.00,SE,135,0.0,0.0,70,0.00,,,0.00,open2300-1.11,2011-05-25 13:34:00,
2011-05-25 07:44:00,45.3,36.1,30.01,SE,135,0.0,0.0,70,0.00,,,0.00,open2300-1.11,2011-05-25 13:44:00,
2011-05-25 07:54:00,46.2,36.6,30.01,SE,135,0.0,0.0,69,0.00,,,0.00,open2300-1.11,2011-05-25 13:54:00,
2011-05-25 08:04:00,47.1,37.1,30.00,ESE,112,0.0,0.0,68,0.00,,,0.00,open2300-1.11,2011-05-25 14:04:00,
2011-05-25 08:14:00,48.0,37.5,30.01,SE,135,0.0,0.0,67,0.00,,,0.00,open2300-1.11,2011-05-25 14:14:00,
2011-05-25 08:24:00,48.7,37.8,30.01,ESE,112,0.0,0.0,66,0.00,,,0.00,open2300-1.11,2011-05-25 14:24:00,
2011-05-25 08:34:00,49.6,38.3,30.01,WNW,292,0.9,0.9,65,0.00,,,0.00,open2300-1.11,2011-05-25 14:34:00,
2011-05-25 08:44:00,50.4,38.6,30.01,WNW,292,0.0,0.9,64,0.00,,,0.00,open2300-1.11,2011-05-25 14:44:00,
2011-05-25 08:54:00,51.3,39.0,30.02,WNW,292,2.2,2.2,63,0.00,,,0.00,open2300-1.11,2011-05-25 14:54:00,
2011-05-25 09:04:00,52.3,39.7,30.01,NW,315,0.0,4.2,62,0.00,,,0.00,open2300-1.11,2011-05-25 15:04:00,
2011-05-25 09:14:00,53.2,39.7,30.01,West,270,0.0,1.8,60,0.00,,,0.00,open2300-1.11,2011-05-25 15:14:00,
2011-05-25 09:24:00,53.8,39.8,30.02,West,270,0.9,0.9,59,0.00,,,0.00,open2300-1.11,2011-05-25 15:24:00,
2011-05-25 09:34:00,55.0,40.5,30.02,NW,315,0.0,0.9,58,0.00,,,0.00,open2300-1.11,2011-05-25 15:34:00,
2011-05-25 09:44:00,55.4,40.3,30.02,SW,225,0.0,3.8,57,0.00,,,0.00,open2300-1.11,2011-05-25 15:44:00,
2011-05-25 09:54:00,56.1,40.6,30.02,WNW,292,0.0,4.9,56,0.00,,,0.00,open2300-1.11,2011-05-25 15:54:00,
2011-05-25 10:04:00,57.4,41.3,30.01,WNW,292,0.0,2.9,55,0.00,,,0.00,open2300-1.11,2011-05-25 16:04:00,
2011-05-25 10:14:00,57.9,40.9,30.01,SW,225,1.3,3.4,53,0.00,,,0.00,open2300-1.11,2011-05-25 16:14:00,
2011-05-25 10:24:00,58.8,40.8,30.01,SW,225,2.9,3.4,51,0.00,,,0.00,open2300-1.11,2011-05-25 16:24:00,
2011-05-25 10:34:00,59.5,41.0,30.01,NNW,337,0.0,2.9,50,0.00,,,0.00,open2300-1.11,2011-05-25 16:34:00,
2011-05-25 10:44:00,60.1,40.3,30.01,SW,225,4.7,4.7,48,0.00,,,0.00,open2300-1.11,2011-05-25 16:44:00,
2011-05-25 10:54:00,61.0,40.5,30.01,SW,225,3.4,4.7,47,0.00,,,0.00,open2300-1.11,2011-05-25 16:54:00,
2011-05-25 11:04:00,61.7,41.2,30.00,NNW,337,0.0,4.9,47,0.00,,,0.00,open2300-1.11,2011-05-25 17:04:00,
2011-05-25 11:14:00,62.4,41.2,30.01,WSW,247,0.0,4.9,46,0.00,,,0.00,open2300-1.11,2011-05-25 17:14:00,
2011-05-25 11:24:00,63.0,40.6,30.01,WSW,247,2.0,9.2,44,0.00,,,0.00,open2300-1.11,2011-05-25 17:24:00,
2011-05-25 11:34:00,63.7,40.1,30.01,SSW,202,0.0,5.4,42,0.00,,,0.00,open2300-1.11,2011-05-25 17:34:00,
2011-05-25 11:44:00,64.4,40.1,30.01,WSW,247,0.0,5.6,41,0.00,,,0.00,open2300-1.11,2011-05-25 17:44:00,
2011-05-25 11:54:00,64.9,41.8,30.01,WSW,247,0.0,4.5,43,0.00,,,0.00,open2300-1.11,2011-05-25 17:54:00,
2011-05-25 12:04:00,65.5,41.1,30.01,WSW,247,1.8,5.4,41,0.00,,,0.00,open2300-1.11,2011-05-25 18:04:00,
2011-05-25 12:14:00,66.0,41.0,30.00,West,270,7.2,7.6,40,0.00,,,0.00,open2300-1.11,2011-05-25 18:14:00,
2011-05-25 12:24:00,66.7,40.9,30.00,West,270,0.0,7.2,39,0.00,,,0.00,open2300-1.11,2011-05-25 18:24:00,
2011-05-25 12:34:00,67.1,40.5,30.01,West,270,5.4,5.4,38,0.00,,,0.00,open2300-1.11,2011-05-25 18:34:00,
2011-05-25 12:44:00,67.6,40.3,30.00,SW,225,1.8,5.4,37,0.00,,,0.00,open2300-1.11,2011-05-25 18:44:00,
2011-05-25 12:54:00,68.2,40.0,30.00,WSW,247,0.0,1.8,36,0.00,,,0.00,open2300-1.11,2011-05-25 18:54:00,
2011-05-25 13:04:00,68.4,40.2,30.00,NW,315,0.0,5.8,36,0.00,,,0.00,open2300-1.11,2011-05-25 19:04:00,
2011-05-25 13:14:00,68.7,41.2,30.00,SW,225,1.3,1.3,37,0.00,,,0.00,open2300-1.11,2011-05-25 19:14:00,
2011-05-25 13:24:00,69.3,40.2,30.00,WSW,247,6.3,6.3,35,0.00,,,0.00,open2300-1.11,2011-05-25 19:24:00,
2011-05-25 13:34:00,69.6,39.8,30.00,WSW,247,0.9,6.3,34,0.00,,,0.00,open2300-1.11,2011-05-25 19:34:00,
2011-05-25 13:44:00,70.2,40.3,30.00,WNW,292,0.0,6.3,34,0.00,,,0.00,open2300-1.11,2011-05-25 19:44:00,
2011-05-25 13:54:00,70.7,40.1,30.00,WSW,247,5.1,10.7,33,0.00,,,0.00,open2300-1.11,2011-05-25 19:54:00,
2011-05-25 14:04:00,70.9,40.2,30.00,WSW,247,1.3,5.8,33,0.00,,,0.00,open2300-1.11,2011-05-25 20:04:00,
2011-05-25 14:14:00,71.4,40.7,30.00,WSW,247,2.7,2.7,33,0.00,,,0.00,open2300-1.11,2011-05-25 20:14:00,
2011-05-25 14:24:00,71.8,39.5,29.99,WNW,292,2.0,3.6,31,0.00,,,0.00,open2300-1.11,2011-05-25 20:24:00,
2011-05-25 14:34:00,71.8,40.3,29.99,WNW,292,3.4,3.4,32,0.00,,,0.00,open2300-1.11,2011-05-25 20:34:00,
2011-05-25 14:44:00,71.6,40.9,29.98,NW,315,0.0,3.4,33,0.00,,,0.00,open2300-1.11,2011-05-25 20:44:00,
2011-05-25 14:54:00,71.8,39.5,29.98,WNW,292,4.5,4.5,31,0.00,,,0.00,open2300-1.11,2011-05-25 20:54:00,
2011-05-25 15:04:00,71.8,38.8,29.98,SW,225,3.1,4.5,30,0.00,,,0.00,open2300-1.11,2011-05-25 21:04:00,
2011-05-25 15:14:00,71.8,39.5,29.98,SSW,202,0.0,3.1,31,0.00,,,0.00,open2300-1.11,2011-05-25 21:14:00,
2011-05-25 15:24:00,72.3,39.2,29.97,ENE,67,0.0,3.1,30,0.00,,,0.00,open2300-1.11,2011-05-25 21:24:00,
2011-05-25 15:34:00,72.3,39.2,29.98,NNW,337,4.7,4.9,30,0.00,,,0.00,open2300-1.11,2011-05-25 21:34:00,
2011-05-25 15:44:00,72.3,38.2,29.97,WSW,247,0.4,4.7,29,0.00,,,0.00,open2300-1.11,2011-05-25 21:44:00,
2011-05-25 15:54:00,72.7,38.5,29.97,North,0,0.0,0.4,29,0.00,,,0.00,open2300-1.11,2011-05-25 21:54:00,
2011-05-25 16:04:00,73.0,37.8,29.97,WSW,247,2.2,5.6,28,0.00,,,0.00,open2300-1.11,2011-05-25 22:04:00,
2011-05-25 16:14:00,73.0,37.8,29.97,West,270,0.0,7.8,28,0.00,,,0.00,open2300-1.11,2011-05-25 22:14:00,
2011-05-25 16:24:00,73.2,37.9,29.96,WNW,292,1.3,4.0,28,0.00,,,0.00,open2300-1.11,2011-05-25 22:24:00,
2011-05-25 16:34:00,73.0,35.8,29.96,WNW,292,1.6,1.6,26,0.00,,,0.00,open2300-1.11,2011-05-25 22:34:00,
2011-05-25 16:44:00,72.7,34.5,29.96,WSW,247,3.4,3.4,25,0.00,,,0.00,open2300-1.11,2011-05-25 22:44:00,
2011-05-25 16:54:00,72.5,33.3,29.96,WSW,247,0.0,3.4,24,0.00,,,0.00,open2300-1.11,2011-05-25 22:54:00,
2011-05-25 17:04:00,72.0,32.8,29.95,WSW,247,0.0,0.0,24,0.00,,,0.00,open2300-1.11,2011-05-25 23:04:00,
2011-05-25 17:14:00,71.8,33.7,29.95,WNW,292,0.0,0.0,25,0.00,,,0.00,open2300-1.11,2011-05-25 23:14:00,
2011-05-25 17:24:00,71.2,32.2,29.95,South,180,0.0,3.6,24,0.00,,,0.00,open2300-1.11,2011-05-25 23:24:00,
2011-05-25 17:34:00,70.7,31.8,29.95,WSW,247,0.0,0.0,24,0.00,,,0.00,open2300-1.11,2011-05-25 23:34:00,
2011-05-25 17:44:00,70.3,32.5,29.94,WSW,247,0.0,0.0,25,0.00,,,0.00,open2300-1.11,2011-05-25 23:44:00,
2011-05-25 17:54:00,70.2,33.3,29.94,WSW,247,0.0,0.0,26,0.00,,,0.00,open2300-1.11,2011-05-25 23:54:00,
2011-05-25 18:04:00,70.0,32.1,29.94,WSW,247,0.0,0.0,25,0.00,,,0.00,open2300-1.11,2011-05-26 00:04:00,
2011-05-25 18:14:00,69.6,31.8,29.94,SSW,202,0.0,0.0,25,0.00,,,0.00,open2300-1.11,2011-05-26 00:14:00,
2011-05-25 18:24:00,69.4,32.7,29.93,WSW,247,0.0,0.0,26,0.00,,,0.00,open2300-1.11,2011-05-26 00:24:00,
2011-05-25 18:34:00,69.1,32.4,29.93,WSW,247,0.0,0.0,26,0.00,,,0.00,open2300-1.11,2011-05-26 00:34:00,
2011-05-25 18:44:00,68.9,33.2,29.93,WNW,292,0.0,0.0,27,0.00,,,0.00,open2300-1.11,2011-05-26 00:44:00,
2011-05-25 18:54:00,68.7,34.1,29.93,WNW,292,0.0,0.7,28,0.00,,,0.00,open2300-1.11,2011-05-26 00:54:00,
2011-05-25 19:04:00,68.4,34.7,29.93,NW,315,0.0,0.0,29,0.00,,,0.00,open2300-1.11,2011-05-26 01:04:00,
2011-05-25 19:14:00,68.0,33.4,29.93,WSW,247,0.0,1.3,28,0.00,,,0.00,open2300-1.11,2011-05-26 01:14:00,
2011-05-25 19:24:00,67.8,33.3,29.94,WSW,247,0.0,0.0,28,0.00,,,0.00,open2300-1.11,2011-05-26 01:24:00,
2011-05-25 19:34:00,67.6,35.1,29.93,WSW,247,0.0,0.0,30,0.00,,,0.00,open2300-1.11,2011-05-26 01:34:00,
2011-05-25 19:44:00,66.9,35.3,29.94,WSW,247,0.0,0.0,31,0.00,,,0.00,open2300-1.11,2011-05-26 01:44:00,
2011-05-25 19:54:00,66.2,35.4,29.94,WSW,247,0.0,0.0,32,0.00,,,0.00,open2300-1.11,2011-05-26 01:54:00,
2011-05-25 20:04:00,65.7,34.9,29.94,WSW,247,0.0,0.0,32,0.00,,,0.00,open2300-1.11,2011-05-26 02:04:00,
2011-05-25 20:14:00,64.9,35.7,29.94,WSW,247,0.0,0.0,34,0.00,,,0.00,open2300-1.11,2011-05-26 02:14:00,
2011-05-25 20:24:00,63.7,36.8,29.94,WSW,247,0.0,0.0,37,0.00,,,0.00,open2300-1.11,2011-05-26 02:24:00,
2011-05-25 20:34:00,63.0,36.1,29.94,WSW,247,0.0,0.0,37,0.00,,,0.00,open2300-1.11,2011-05-26 02:34:00,
2011-05-25 20:44:00,61.9,35.8,29.94,WSW,247,0.0,0.0,38,0.00,,,0.00,open2300-1.11,2011-05-26 02:44:00,
2011-05-25 20:54:00,61.0,36.5,29.95,WSW,247,0.0,0.0,40,0.00,,,0.00,open2300-1.11,2011-05-26 02:54:00,
2011-05-25 21:04:00,60.3,36.4,29.95,WSW,247,0.0,0.0,41,0.00,,,0.00,open2300-1.11,2011-05-26 03:04:00,
2011-05-25 21:14:00,59.5,36.9,29.95,WSW,247,0.0,0.0,43,0.00,,,0.00,open2300-1.11,2011-05-26 03:14:00,
2011-05-25 21:24:00,58.8,36.3,29.95,WSW,247,0.0,0.0,43,0.00,,,0.00,open2300-1.11,2011-05-26 03:24:00,
2011-05-25 21:34:00,58.3,35.2,29.95,SW,225,0.0,0.0,42,0.00,,,0.00,open2300-1.11,2011-05-26 03:34:00,
2011-05-25 21:44:00,57.9,34.9,29.95,East,90,0.0,1.1,42,0.00,,,0.00,open2300-1.11,2011-05-26 03:44:00,
2011-05-25 21:54:00,57.7,34.7,29.95,East,90,0.0,0.0,42,0.00,,,0.00,open2300-1.11,2011-05-26 03:54:00,
2011-05-25 22:04:00,57.7,35.3,29.95,East,90,0.0,0.0,43,0.00,,,0.00,open2300-1.11,2011-05-26 04:04:00,
2011-05-25 22:14:00,57.0,34.6,29.94,ESE,112,0.0,0.0,43,0.00,,,0.00,open2300-1.11,2011-05-26 04:14:00,
2011-05-25 22:24:00,56.5,34.1,29.94,SSE,157,0.0,0.0,43,0.00,,,0.00,open2300-1.11,2011-05-26 04:24:00,
2011-05-25 22:34:00,55.9,34.2,29.95,SE,135,0.0,0.0,44,0.00,,,0.00,open2300-1.11,2011-05-26 04:34:00,
2011-05-25 22:44:00,55.8,34.0,29.94,ESE,112,0.0,0.0,44,0.00,,,0.00,open2300-1.11,2011-05-26 04:44:00,
2011-05-25 22:54:00,55.6,34.4,29.95,East,90,5.6,5.6,45,0.00,,,0.00,open2300-1.11,2011-05-26 04:54:00,
2011-05-25 23:04:00,55.9,34.0,29.94,East,90,4.7,9.8,44,0.00,,,0.00,open2300-1.11,2011-05-26 05:04:00,
2011-05-25 23:14:00,56.1,33.8,29.94,ENE,67,5.4,5.4,43,0.00,,,0.00,open2300-1.11,2011-05-26 05:14:00,
2011-05-25 23:24:00,56.1,33.8,29.94,East,90,3.4,5.4,43,0.00,,,0.00,open2300-1.11,2011-05-26 05:24:00,
2011-05-25 23:34:00,56.3,34.0,29.94,East,90,0.0,3.4,43,0.00,,,0.00,open2300-1.11,2011-05-26 05:34:00,
2011-05-25 23:44:00,56.1,33.8,29.94,East,90,0.9,7.2,43,0.00,,,0.00,open2300-1.11,2011-05-26 05:44:00,
2011-05-25 23:54:00,56.5,34.1,29.94,East,90,10.1,10.5,43,0.00,,,0.00,open2300-1.11,2011-05-26 05:54:00,